Avoca, PA

3:28 AM EDT on September 19, 2019 (GMT -0400)
Wilkes-Barre-Scranton International

Weather History for KAVP - July, 2019

Change the Weather History Date:

Thursday, July 11, 2019

  Actual Average Record
Temperature  
Mean Temperature 76 °F 72 °F  
Max Temperature 81 °F 82 °F 99 °F (1936)
Min Temperature 70 °F 61 °F 47 °F (1983)
Degree Days  
Heating Degree Days 0 0  
Month to date heating degree days 0 0  
Since 1 June heating degree days 32 54  
Since 1 July heating degree days 0 0  
Cooling Degree Days 11 7  
Month to date cooling degree days 123 72  
Year to date cooling degree days 288 226  
Since 1 June cooling degree days 238 189  
Growing Degree Days 26 (Base 50)    
Moisture  
Dew Point 69 °F    
Average Humidity 78    
Maximum Humidity 87    
Minimum Humidity 69    
Precipitation  
Precipitation 0.27 in 0.12 in 1.18 in (1950)
Month to date precipitation 3.92 1.26  
Year to date precipitation 28.62 19.09  
Sea Level Pressure  
Sea Level Pressure 29.87 in    
Wind  
Wind Speed 3 mph (SW)    
Max Wind Speed 13 mph    
Max Gust Speed 22 mph    
Visibility 9 miles    
Events Rain    
T = Trace of Precipitation, MM = Missing Value Source: NWS Daily Summary

Daily Weather History Graph

Daily Weather History Graph

Search for Another Location

Airport or City:

Astronomy

Jul. 11, 2019 Rise Set
Actual Time 5:39 AM EDT 8:37 PM EDT
Civil Twilight 5:06 AM EDT 9:10 PM EDT
Nautical Twilight 4:24 AM EDT 9:52 PM EDT
Astronomical Twilight 3:35 AM EDT 10:40 PM EDT
Moon 3:45 PM EDT (7/11) 1:50 AM EDT (7/11)
Length of Visible Light 16h 03m
Length of Day
14h 57m
Waxing Gibbous, 74% of the Moon is Illuminated
Jul 11
Waxing Gibbous
Jul 16
Full
Jul 24
Last Quarter
Jul 31
New
Aug 7
First Quarter

Hourly Weather History & Observations

Time (EDT) Temp. Heat Index Dew Point Humidity Pressure Visibility Wind Dir Wind Speed Gust Speed Precip Events Conditions
12:54 AM 75.9 °F - 68.0 °F 76% 29.96 in 9.0 mi SW 4.6 mph - N/A   Scattered Clouds
1:54 AM 75.9 °F - 68.0 °F 76% 29.95 in 9.0 mi Calm Calm - N/A   Scattered Clouds
2:54 AM 73.0 °F - 68.0 °F 84% 29.93 in 9.0 mi Calm Calm - N/A   Overcast
3:54 AM 73.0 °F - 66.9 °F 81% 29.93 in 9.0 mi SSW 3.5 mph - N/A   Scattered Clouds
4:54 AM 73.0 °F - 66.9 °F 81% 29.93 in 9.0 mi Calm Calm - N/A   Partly Cloudy
5:54 AM 73.0 °F - 66.0 °F 79% 29.93 in 8.0 mi Calm Calm - N/A   Scattered Clouds
6:54 AM 75.0 °F - 66.0 °F 73% 29.93 in 8.0 mi Calm Calm - N/A   Mostly Cloudy
7:54 AM 77.0 °F - 66.0 °F 69% 29.93 in 9.0 mi SW 5.8 mph - N/A   Overcast
8:48 AM 73.4 °F - 69.8 °F 88% 29.95 in 1.8 mi West 10.4 mph - 0.00 in Rain Heavy Rain
8:54 AM 73.0 °F - 69.1 °F 87% 29.92 in 1.0 mi SW 4.6 mph - 0.06 in Rain Heavy Rain
9:09 AM 72.0 °F - 70.0 °F 93% 29.94 in 0.8 mi Calm Calm - 0.17 in Rain Heavy Rain
9:14 AM 72.0 °F - 70.0 °F 93% 29.94 in 2.0 mi Calm Calm - 0.21 in Rain Light Rain
9:21 AM 73.0 °F - 70.0 °F 90% 29.94 in 7.0 mi Calm Calm - 0.21 in Rain Light Rain
9:54 AM 75.0 °F - 70.0 °F 84% 29.90 in 6.0 mi Calm Calm - 0.21 in   Haze
10:08 AM 75.9 °F - 72.0 °F 87% 29.93 in 7.0 mi North 4.6 mph - N/A   Mostly Cloudy
10:26 AM 78.1 °F - 72.0 °F 81% 29.93 in 8.0 mi Calm Calm - N/A   Scattered Clouds
10:33 AM 78.1 °F - 72.0 °F 81% 29.92 in 8.0 mi SW 5.8 mph - N/A   Mostly Cloudy
10:54 AM 79.0 °F - 71.1 °F 77% 29.89 in 9.0 mi Variable 6.9 mph - N/A   Mostly Cloudy
11:54 AM 78.1 °F - 70.0 °F 76% 29.88 in 9.0 mi SSW 6.9 mph 18.4 mph N/A   Mostly Cloudy
12:12 PM 78.1 °F - 69.1 °F 74% 29.91 in 9.0 mi SSW 8.1 mph 18.4 mph N/A   Mostly Cloudy
12:41 PM 79.0 °F - 69.1 °F 72% 29.91 in 10.0 mi SW 9.2 mph 17.3 mph N/A   Mostly Cloudy
12:54 PM 80.1 °F 83.2 °F 70.0 °F 71% 29.88 in 10.0 mi SSW 9.2 mph 21.9 mph N/A   Mostly Cloudy
1:04 PM 80.1 °F 83.2 °F 70.0 °F 71% 29.90 in 10.0 mi SSW 11.5 mph 20.7 mph N/A   Scattered Clouds
1:17 PM 80.1 °F 83.2 °F 70.0 °F 71% 29.90 in 10.0 mi Variable 5.8 mph 16.1 mph N/A   Mostly Cloudy
1:54 PM 78.1 °F - 69.1 °F 74% 29.85 in 10.0 mi Variable 6.9 mph - N/A   Overcast
2:46 PM 81.0 °F 84.1 °F 69.1 °F 67% 29.85 in 10.0 mi Variable 6.9 mph - 0.00 in   Clear
2:54 PM 81.0 °F 84.4 °F 70.0 °F 69% 29.82 in 10.0 mi Variable 6.9 mph - 0.00 in   Clear
3:37 PM 79.0 °F - 70.0 °F 74% 29.85 in 10.0 mi Variable 3.5 mph - N/A   Mostly Cloudy
3:54 PM 79.0 °F - 70.0 °F 74% 29.81 in 10.0 mi Variable 3.5 mph - N/A   Overcast
4:05 PM 79.0 °F - 70.0 °F 74% 29.83 in 10.0 mi Variable 4.6 mph - N/A   Mostly Cloudy
4:54 PM 78.1 °F - 70.0 °F 76% 29.79 in 9.0 mi Variable 6.9 mph - N/A   Overcast
5:54 PM 78.1 °F - 70.0 °F 76% 29.79 in 10.0 mi North 3.5 mph - N/A   Overcast
6:11 PM 77.0 °F - 69.1 °F 76% 29.81 in 10.0 mi Calm Calm - N/A   Scattered Clouds
6:54 PM 77.0 °F - 69.1 °F 76% 29.78 in 10.0 mi Variable 4.6 mph - N/A   Clear
7:39 PM 75.9 °F - 69.1 °F 79% 29.82 in 10.0 mi SW 4.6 mph - N/A   Mostly Cloudy
7:54 PM 75.9 °F - 69.1 °F 79% 29.77 in 10.0 mi South 3.5 mph - N/A   Overcast
8:01 PM 75.9 °F - 69.1 °F 79% 29.81 in 10.0 mi Calm Calm - N/A   Overcast
8:12 PM 75.9 °F - 69.1 °F 79% 29.81 in 10.0 mi SSW 4.6 mph - N/A   Overcast
8:52 PM 75.2 °F - 69.8 °F 83% 29.80 in 10.0 mi South 5.8 mph - N/A   Overcast
8:54 PM 75.0 °F - 70.0 °F 84% 29.78 in 10.0 mi Calm Calm - N/A   Overcast
9:39 PM 75.0 °F - 70.0 °F 84% 29.81 in 10.0 mi Calm Calm - N/A   Overcast
9:54 PM 75.0 °F - 70.0 °F 84% 29.78 in 10.0 mi Calm Calm - N/A   Overcast
10:54 PM 73.9 °F - 70.0 °F 87% 29.78 in 10.0 mi Calm Calm - N/A   Overcast
11:54 PM 73.0 °F - 69.1 °F 87% 29.75 in 10.0 mi Calm Calm - N/A   Overcast